Location: Wallasey
(53.4265°N, 3.0662°W)
Time: 09:01:12
(UTC+01:00)

CAS-4A - Pass Details

Date: 01 October 2019
Orbit: 528 x 546 km, 43.0° (Epoch: 19 October)

Event Time Altitude Azimuth Distance (km) Brightness Sun altitude
Exits shadow 06:32:36 - 227° (SW) 2,451 ? -6.9°
Reaches altitude 10° 06:34:43 10° 211° (SSW) 1,798 ? -6.6°
Maximum altitude 06:37:27 17° 169° (S) 1,391 ? -6.1°
Drops below altitude 10° 06:40:11 10° 127° (SE) 1,793 ? -5.7°
Sets 06:43:00 0° 108° (ESE) 2,681 ? -5.3°
